Flag for Russia Weather past 2 weeks in Vladivostok, Russia

Now
64 °F

Clear.


Feels Like: 64 °F
Forecast: 67 / 76 °F
Wind: 3 mph from East

Location: Vladivostok Airport

Current Time: Aug 2, 2015 at 6:17:12 AM

Latest Report: Aug 2, 2015 at 5:30 AM


Visibility: N/A

Pressure: 29.83 "Hg

Humidity: 100%

Dew point: 64 °F

Location of VladivostokLocation

Historic Weather in Vladivostok — Graph

°F

Vladivostok temperature yesterday

Maximum temperature yesterday: 86 °F (at 3:00 PM)
Minimum temperature yesterday: 55 °F (at 5:30 AM)
Average temperature yesterday: 71 °F

Past Weeks' High & Low Weather Summary

 TemperatureHumidityPressure
High90 °F (Jul 30, 1:30 PM)100% (Jul 20, 2:30 AM)29.92 "Hg (Jul 20, 2:30 AM)
Low55 °F (Aug 1, 5:30 AM)30% (Jul 31, 5:00 PM)29.59 "Hg (Jul 24, 6:30 PM)
Average72 °F81%29.72 "Hg
* Reported Jul 18 5:00 AM — Aug 2 5:00 AM, Vladivostok, Weather by CustomWeather, © 2015

Note: Actual official high and low records may vary slightly from our data, if they occured in-between our weather recording intervals... More about our weather records

Advertising

Vladivostok weather history for previous 24 hours

 ConditionsComfort  
Time TempWeatherWind HumidityBarometerVisibility
5:00 AM
Sun, Aug 2
66 °FClear.3 mph94%29.83 "HgN/A
4:30 AM64 °FClear.6 mph100%29.83 "HgN/A
4:00 AM64 °FClear.6 mph94%29.83 "HgN/A
3:30 AM64 °FClear.3 mph94%29.83 "HgN/A
3:00 AM64 °FClear.6 mph94%29.83 "HgN/A
2:30 AM63 °FClear.6 mph100%29.83 "HgN/A
2:00 AM64 °FClear.3 mph94%29.83 "HgN/A
1:00 AM64 °FClear.3 mph100%29.83 "HgN/A
12:30 AM66 °FClear.3 mph94%29.83 "HgN/A
12:00 AM66 °FClear.3 mph100%29.83 "HgN/A
11:30 PM
Sat, Aug 1
68 °FClear.6 mph94%29.83 "HgN/A
11:00 PM68 °FClear.3 mph100%29.83 "HgN/A
10:30 PM68 °FClear.3 mph100%29.83 "HgN/A
10:00 PM70 °FClear.3 mph100%29.83 "HgN/A
9:30 PM72 °FClear.3 mph94%29.83 "HgN/A
9:00 PM72 °FClear.3 mph94%29.83 "HgN/A
8:30 PM75 °FClear.No wind74%29.80 "HgN/A
8:00 PM75 °FClear.1 mph78%29.80 "HgN/A
7:30 PM77 °FClear.6 mph74%29.80 "HgN/A
7:00 PM79 °FClear.10 mph65%29.80 "HgN/A
6:30 PM79 °FClear.10 mph61%29.80 "HgN/A
6:00 PM81 °FClear.10 mph54%29.80 "HgN/A
5:30 PM82 °FClear.10 mph51%29.80 "HgN/A
5:00 PM84 °FClear.10 mph48%29.80 "HgN/A
4:30 PM86 °FClear.10 mph46%29.80 "HgN/A
4:00 PM86 °FClear.3 mph35%29.80 "HgN/A
3:30 PM84 °FClear.3 mph35%29.80 "HgN/A
3:00 PM86 °FClear.3 mph35%29.80 "HgN/A
2:30 PM84 °FClear.3 mph43%29.80 "HgN/A
2:00 PM82 °FClear.3 mph45%29.80 "HgN/A
1:30 PM82 °FClear.3 mph48%29.83 "HgN/A
1:00 PM84 °FClear.1 mph45%29.83 "HgN/A
12:30 PM81 °FClear.3 mph51%29.83 "HgN/A
12:00 PM79 °FClear.1 mph54%29.83 "HgN/A
11:30 AM77 °FClear.1 mph57%29.83 "HgN/A
11:00 AM77 °FClear.1 mph57%29.83 "HgN/A
10:30 AM75 °FClear.1 mph65%29.83 "HgN/A
10:00 AM72 °FClear.3 mph69%29.83 "HgN/A
9:30 AM68 °FClear.1 mph78%29.83 "HgN/A
9:00 AM68 °FClear.No wind83%29.83 "HgN/A
8:30 AM64 °FClear.No wind94%29.86 "HgN/A
7:30 AM61 °FClear.3 mph94%29.83 "HgN/A
7:00 AM59 °FFog.No wind100%29.83 "Hg3 mi
6:30 AM57 °FFog.1 mph100%29.83 "Hg3 mi
6:00 AM55 °FFog.1 mph100%29.83 "Hg3 mi
Weather by CustomWeather, © 2015

See weather overviewHow to use our weather pages